User: anonymous   Login
Location: Melbourne
(37.8170°S, 144.9670°E)
Time: 23:15:54
(UTC+11:00)
Language:

Explorer 11/Cluster Stage 4 - Orbit

View from above orbital plane
View from above orbital plane
View from above satellite
View from above satellite

Ground track
Ground track

The orbit data is extracted from the following two-line orbital elements,

1 00107U 61013A   14327.51798416  .00003116  00000-0  40922-3 0  1855
2 00107 028.7912 127.8969 0559396 247.3190 142.1186 14.05832512679000
Epoch (UTC): 23 November 2014 12:25:53
Eccentricity: 0.0559396
inclination: 28.7912°
perigee height: 468 km
apogee height: 1279 km
right ascension of ascending node: 127.8969°
argument of perigee: 247.3190°
revolutions per day: 14.05832512
mean anomaly at epoch: 142.1186°
orbit number at epoch: 67900

The dashed part of the orbit path shows where the satellite is in the earth's shadow,  

DLR